| time (UTC) | temp F | wind direction | speed MPH | gust MPH | rain 1hr in | rain 24hr in | rain mn in | humidity % | barometer mb |
| 20260505054535 | 58 | 179 | 9.0 | 20.0 | 0.00 | 0.00 | 0.00 | 55 | 1005.3 |
| 20260505053015 | 58 | 165 | 9.0 | 20.0 | 0.00 | 0.00 | 0.00 | 55 | 1005.4 |
| 20260505051513 | 57 | 200 | 9.0 | 16.0 | 0.00 | 0.00 | 0.00 | 56 | 1005.3 |
| 20260505041507 | 57 | 217 | 7.0 | 15.0 | 0.00 | 0.00 | 0.00 | 55 | 1005.4 |
| 20260505040002 | 58 | 157 | 7.0 | 15.0 | 0.00 | 0.00 | 0.00 | 54 | 1005.3 |
| 20260505034502 | 58 | 234 | 5.0 | 14.0 | 0.00 | 0.00 | 0.00 | 54 | 1005.2 |
| 20260505033001 | 58 | 219 | 8.0 | 15.0 | 0.00 | 0.00 | 0.00 | 53 | 1005.0 |
| 20260505031606 | 58 | 198 | 9.0 | 16.0 | 0.00 | 0.00 | 0.00 | 52 | 1005.1 |
| 20260505030122 | 59 | 223 | 6.0 | 16.0 | 0.00 | 0.00 | 0.00 | 52 | 1005.0 |
| 20260505024612 | 59 | 195 | 6.0 | 13.0 | 0.00 | 0.00 | 0.00 | 51 | 1005.1 |
| 20260505023101 | 60 | 143 | 7.0 | 21.0 | 0.00 | 0.00 | 0.00 | 50 | 1004.9 |
| 20260505021559 | 60 | 174 | 10.0 | 18.0 | 0.00 | 0.00 | 0.00 | 49 | 1005.1 |
| 20260505020108 | 61 | 122 | 6.0 | 13.0 | 0.00 | 0.00 | 0.00 | 48 | 1005.1 |
| 20260505014558 | 61 | 186 | 10.0 | 20.0 | 0.00 | 0.00 | 0.00 | 45 | 1005.0 |
| 20260505013058 | 62 | 177 | 4.0 | 14.0 | 0.00 | 0.00 | 0.00 | 43 | 1004.9 |
| 20260505011601 | 63 | 229 | 5.0 | 15.0 | 0.00 | 0.00 | 0.00 | 41 | 1004.5 |
| 20260505010110 | 63 | 185 | 4.0 | 10.0 | 0.00 | 0.00 | 0.00 | 40 | 1004.4 |
| 20260505004627 | 63 | 213 | 6.0 | 13.0 | 0.00 | 0.00 | 0.00 | 40 | 1004.0 |
| 20260505003100 | 64 | 212 | 6.0 | 13.0 | 0.00 | 0.00 | 0.00 | 40 | 1003.9 |
| 20260505001555 | 64 | 220 | 6.0 | 10.0 | 0.00 | 0.00 | 0.00 | 40 | 1003.5 |
| 20260505000109 | 65 | 192 | 4.0 | 8.0 | 0.00 | 0.00 | 0.00 | 39 | 1003.4 |
| 20260504234554 | 65 | 190 | 5.0 | 7.0 | 0.00 | 0.00 | 0.00 | 38 | 1003.1 |
| 20260504233054 | 66 | 203 | 2.0 | 10.0 | 0.00 | 0.00 | 0.00 | 36 | 1002.9 |
| 20260504231620 | 67 | 226 | 8.0 | 14.0 | 0.00 | 0.00 | 0.00 | 35 | 1002.8 |
| 20260504230052 | 67 | 275 | 5.0 | 13.0 | 0.00 | 0.00 | 0.00 | 35 | 1002.6 |
| 20260504224552 | 68 | 215 | 8.0 | 19.0 | 0.00 | 0.00 | 0.00 | 34 | 1002.4 |
| 20260504223051 | 68 | 200 | 6.0 | 13.0 | 0.00 | 0.00 | 0.00 | 34 | 1002.2 |
| 20260504221630 | 68 | 279 | 13.0 | 22.0 | 0.00 | 0.00 | 0.00 | 33 | 1002.2 |
| 20260504220049 | 68 | 190 | 10.0 | 23.0 | 0.00 | 0.00 | 0.00 | 33 | 1002.3 |
| 20260504214550 | 69 | 223 | 9.0 | 19.0 | 0.00 | 0.00 | 0.00 | 32 | 1002.4 |
| 20260504213051 | 69 | 239 | 10.0 | 21.0 | 0.00 | 0.00 | 0.00 | 32 | 1002.3 |
| 20260504211548 | 69 | 228 | 9.0 | 25.0 | 0.00 | 0.00 | 0.00 | 32 | 1002.4 |
| 20260504210050 | 70 | 230 | 12.0 | 22.0 | 0.00 | 0.00 | 0.00 | 32 | 1002.4 |
| 20260504204546 | 70 | 268 | 12.0 | 24.0 | 0.00 | 0.00 | 0.00 | 31 | 1002.3 |
| 20260504203046 | 70 | 285 | 11.0 | 22.0 | 0.00 | 0.00 | 0.00 | 34 | 1002.2 |
| 20260504201545 | 69 | 280 | 13.0 | 24.0 | 0.00 | 0.00 | 0.00 | 30 | 1002.3 |
| 20260504200043 | 70 | 250 | 15.0 | 28.0 | 0.00 | 0.00 | 0.00 | 31 | 1002.5 |
| 20260504194550 | 70 | 236 | 10.0 | 24.0 | 0.00 | 0.00 | 0.00 | 31 | 1002.4 |
| 20260504193046 | 70 | 209 | 12.0 | 22.0 | 0.00 | 0.00 | 0.00 | 32 | 1002.4 |
| 20260504191605 | 70 | 276 | 11.0 | 25.0 | 0.00 | 0.00 | 0.00 | 34 | 1002.5 |
| 20260504190040 | 69 | 228 | 8.0 | 26.0 | 0.00 | 0.00 | 0.00 | 32 | 1002.5 |
| 20260504184549 | 69 | 244 | 8.0 | 34.0 | 0.00 | 0.00 | 0.00 | 33 | 1002.5 |
| 20260504183035 | 69 | 262 | 12.0 | 25.0 | 0.00 | 0.00 | 0.00 | 32 | 1002.7 |
| 20260504181535 | 69 | 174 | 13.0 | 20.0 | 0.00 | 0.00 | 0.00 | 32 | 1002.6 |
| 20260504180035 | 67 | 250 | 11.0 | 28.0 | 0.00 | 0.00 | 0.00 | 33 | 1003.0 |
| 20260504174530 | 67 | 257 | 15.0 | 27.0 | 0.00 | 0.00 | 0.00 | 32 | 1003.0 |
| 20260504173029 | 67 | 242 | 13.0 | 27.0 | 0.00 | 0.00 | 0.00 | 33 | 1003.0 |
| 20260504171526 | 66 | 254 | 7.0 | 24.0 | 0.00 | 0.00 | 0.00 | 37 | 1003.0 |
| 20260504081549 | 44 | 213 | 4.0 | 9.0 | 0.00 | 0.00 | 0.00 | 62 | 1005.9 |